Location: Sungai Iban
(2.5500°N, 114.0333°E)
Time: 04:05:28
(UTC+00:00)

Daily predictions for brighter satellites

Satellite Brightness Start Highest point End
(mag) Time Altitude Azimuth Time Altitude Azimuth Time Altitude Azimuth
Centaur D-1A AC-31 3.4 10:24:54 10° W 10:29:18 54° NNW 10:51:45 10° ENE
deb Ariane 4.5 10:34:25 10° WNW 10:37:36 67° N 10:50:43 10° E
ARIANE 5 R/B 3.9 10:33:45 10° WSW 10:38:54 66° SSE 11:30:46 10° E
Skynet4D Del rocket 4.2 10:40:14 10° NW 10:46:28 70° NNE 10:53:42 10° ESE
Cosmos 1932 4.4 10:40:24 10° NNW 10:46:34 83° ENE 10:52:44 10° SSE
CZ-4B R/B 3.6 10:46:58 10° S 10:52:18 69° WSW 10:57:33 10° NNW
Cosmos 2369 4.1 10:49:10 10° N 10:54:31 42° ENE 10:59:50 10° SE
CZ-2D R/B 3.2 10:54:08 10° SSE 10:58:00 77° E 11:01:51 10° N
ARGOS 4.3 10:55:26 10° SE 10:59:31 22° ENE 11:03:33 10° NNE
CZ-2C R/B 3.0 10:55:19 10° S 11:00:22 83° WSW 11:05:10 10° NNW
Cosmos 1833 4.2 10:57:36 10° S 11:03:09 63° ESE 11:08:41 10° NNE
SL-19 R/B 4.3 11:00:48 10° SSE 11:03:54 44° ENE 11:07:25 10° N
CZ-2C R/B 3.2 11:02:56 10° N 11:04:42 13° NNE 11:06:24 10° ENE
ERS-2 2.2 11:01:22 10° NNE 11:04:53 53° ESE 11:08:25 10° S
Cosmos 2278 4.5 11:02:36 10° NNE 11:07:27 30° ENE 11:12:19 10° SE
Cosmos 1464 Rocket 4.3 11:03:47 10° SSE 11:09:52 47° E 11:15:54 10° NNE
Okean 1-7 Rocket 3.8 11:13:37 10° N 11:18:03 52° E 11:22:28 10° SSE
ATLAS 2AS CENTAUR R/B 3.2 11:11:33 10° SSW 11:19:04 78° WNW 11:26:57 10° NNE
Tsikada Rocket 4.0 11:14:58 10° N 11:21:17 88° W 11:27:32 10° S
SAR-Lupe-4 4.0 11:18:30 10° N 11:22:02 65° WNW 11:25:35 10° SSW
Cosmos 2228 3.6 11:18:09 10° SSE 11:22:10 35° E 11:26:09 10° NNE
Cosmos 1892 Rocket 4.0 11:18:31 10° NNW 11:22:47 64° W 11:27:05 10° S
CZ-3B R/B 4.5 11:13:42 10° W 11:23:14 27° SW 11:27:58 10° SSE
SJ-11-01 4.3 11:20:14 10° SSE 11:24:53 57° ENE 11:29:31 10° N
USA 32 3.9 11:20:30 10° S 11:25:43 79° E 11:30:56 10° N
Okean O Rocket 4.2 11:23:46 10° SSW 11:27:12 23° WSW 11:30:39 10° NW
Cosmos 1300 2.6 11:24:02 10° S 11:27:50 90° WSW 11:31:37 10° N
Cosmos 1513 Rocket 4.4 11:22:49 10° S 11:29:00 82° E 11:35:17 10° N
Lacrosse 4 Rocket 3.3 11:27:05 10° NNE 11:28:27 14° NE 11:28:27 14° NE
Palapa 6 Rocket 4.2 11:26:18 10° W 11:29:42 30° NNW 11:32:39 12° NE
Cosmos 1624 Rocket 4.3 11:24:55 10° NNW 11:30:11 69° WSW 11:35:26 10° S
Cosmos 1420 Rocket 3.9 11:25:21 10° N 11:30:26 61° ENE 11:35:33 10° SSE
HJ-1C 3.8 11:31:39 37° E 11:31:41 37° E 11:34:43 10° N
CZ-2C R/B 4.2 11:31:23 10° NNW 11:36:10 37° WNW 11:41:05 10° SW
SL-16 R/B 4.2 11:36:45 10° NE 11:37:11 11° NE 11:37:11 11° NE
CZ-4 R/B 1.7 11:36:54 10° S 11:41:01 70° W 11:45:09 10° NNW
ASC 2 Rocket 4.3 11:38:20 10° SSW 11:41:15 22° SSE 11:41:15 22° SSE
CZ-3 Stage 3 3.5 11:40:31 10° NNW 11:41:24 18° N 11:41:24 18° N
Cosmos 1703 3.0 11:39:56 10° N 11:43:47 76° E 11:45:51 26° SSE
Cosmos 1980 Rocket 2.1 11:39:00 10° NNW 11:44:36 89° W 11:49:54 12° SSE
Cosmos 1452 Rocket 3.9 11:40:24 10° N 11:45:18 40° ENE 11:45:53 38° E
Spelda 3.2 11:42:25 10° WSW 11:45:21 47° SSE 11:46:56 35° ESE
Cosmos 1697 Rocket 4.2 11:40:20 10° NW 11:45:22 35° WSW 11:50:27 10° S
Cosmos 1328 4.4 11:44:24 10° N 11:47:15 39° NE 11:47:15 39° NE
